Regional Weather Roundup
Issued by NWS

Home | Current Version | Previous Version | Graphics & Text | Print | Product List | Glossary On
Versions: 1 2 3 4 5 6 7 8 9 10 11 12 13 14 15 16 17 18 19 20 21 22 23 24 25 26 27 28 29 30 31 32 33 34 35 36 37 38 39 40 41 42 43 44 45 46 47 48 49 50
000
ASUS45 KCYS 111910
RWRWY

WYOMING REGIONAL WEATHER ROUNDUP
NATIONAL WEATHER SERVICE CHEYENNE WY
1200 PM MST MON DEC 11 2017

NOTE:  "FAIR" INDICATES FEW OR NO CLOUDS BELOW 12,000 FEET
WITH NO SIGNIFICANT WEATHER AND/OR OBSTRUCTIONS TO VISIBILITY.

WYZ001-112000-
YELLOWSTONE NATIONAL PARK

CITY           SKY/WX    TMP DP  RH WIND       PRES   REMARKS
LK YELLOWSTONE   N/A     24  19  81 CALM      30.58F
W YELLOWSTONE  NOT AVBL

$$
WYZ002>013-054>058-071-098>099-112000-
NORTHERN WYOMING

CITY           SKY/WX    TMP DP  RH WIND       PRES   REMARKS
JACKSON        NOT AVBL
CODY           FAIR      49  12  22 NW3       30.45S
GREYBULL       FAIR      30  16  56 W3        30.46F
WORLAND        FAIR      37  20  50 CALM      30.45F
SHERIDAN       FAIR      48  17  29 NW17      30.43S
BUFFALO        FAIR      47  11  23 N29       30.40F
GILLETTE       FAIR      45  15  30 N22       30.38S
HULETT         FAIR      37  21  52 NW9       30.37S WCI  31
NEWCASTLE      FAIR      39  16  38 NW20G31   30.34S WCI  30

$$
WYZ014>020-022>026-101>103-112000-
CENTRAL WYOMING

CITY           SKY/WX    TMP DP  RH WIND       PRES   REMARKS
BIG PINEY      FAIR      50   5  16 N12       30.50F
PINEDALE       FAIR      52  12  20 NW23G31   30.47F
DUBOIS         FAIR      48  16  27 W26G36    30.44F
LANDER         FAIR      33  17  51 E3        30.44F
RIVERTON       FAIR      34  19  54 SE3       30.45F
CASPER         FAIR      42  15  33 SW16      30.42F
DOUGLAS        FAIR      45  20  36 W14       30.40F

$$
WYZ021-027>030-104>119-112000-
SOUTHERN WYOMING

CITY           SKY/WX    TMP DP  RH WIND       PRES   REMARKS
EVANSTON       FAIR      41  11  29 CALM      30.55F
FORT BRIDGER   FAIR      51   5  15 W8        30.55F
ROCK SPRINGS   FAIR      43   3  19 SW9       30.50F
DIXON          FAIR      31  12  46 CALM      30.55F
RAWLINS        FAIR      38  12  34 SW21      30.47F WCI  28
SARATOGA       FAIR      34  18  51 E9        30.49F WCI  26
LARAMIE        FAIR      47   3  16 NW24G33   30.39F
CHEYENNE       FAIR      50   7  17 NW25G40   30.36F
TORRINGTON     FAIR      50  13  22 N25G36    30.35F
PINE BLUFFS    FAIR      48   7  18 N24G32    30.36F

$$



USA.gov is the U.S. government's official web portal to all federal, state and local government web resources and services.